Regional Weather Roundup
Issued by NWS

Home | Current Version | Previous Version | Graphics & Text | Print | Product List | Glossary On
Versions: 1 2 3 4 5 6 7 8 9 10 11 12 13 14 15 16 17 18 19 20 21 22 23 24 25 26 27 28 29 30 31 32 33 34 35 36 37 38 39 40 41 42 43 44 45 46 47 48 49 50
000
ASUS43 KMKX 200721
RWRWI

WISCONSIN REGIONAL WEATHER ROUNDUP
NATIONAL WEATHER SERVICE MILWAUKEE/SULLIVAN WI
200 AM CDT SUN APR 20 2014

NOTE: "FAIR" INDICATES FEW OR NO CLOUDS BELOW 12,000 FEET WITH NO
SIGNIFICANT WEATHER AND/OR OBSTRUCTIONS TO VISIBILITY.

WIZ001-002-006>008-014>016-023>028-200800-
NORTHWEST WISCONSIN

CITY           SKY/WX    TMP DP  RH WIND       PRES   REMARKS
SUPERIOR ARPT  CLEAR     27  26  98 CALM      30.03S FOG
ASHLAND        CLEAR     40  39  97 SW6       30.01F
HAYWARD        CLOUDY    40  38  93 CALM      30.02S
SIREN          PTCLDY    35  34  95 CALM      30.03R
RICE LAKE      RAIN      47  46  95 CALM      30.04S VSB 1/2
LADYSMITH      LGT RAIN  51  46  80 SE8       30.04F
EAU CLAIRE     LGT RAIN  53  44  71 CALM      30.02S
MENOMONIE      CLOUDY    54  45  73 CALM      30.03R
NEW RICHMOND   DRIZZLE   51  51 100 CALM      30.03S
OSCEOLA        CLOUDY    50  50 100 CALM      30.04S FOG
$$

WIZ003>005-009-010-017-018-200800-
NORTH CENTRAL WISCONSIN

CITY           SKY/WX    TMP DP  RH WIND       PRES   REMARKS
WOODRUFF       LGT RAIN  46  38  76 S8        30.05S
RHINELANDER    LGT RAIN  49  35  58 S6        30.07F
EAGLE RIVER    RAIN      44  37  75 S5        30.06S
LAND O LAKES   CLOUDY    47  35  62 S7        30.06S
PHILLIPS       LGT RAIN  47  43  84 S7        30.04S
TOMAHAWK       LGT RAIN  47  38  71 CALM      30.07R
MEDFORD        CLOUDY    51  41  68 S7        30.05S
MERRILL        LGT RAIN  50  39  65 CALM      30.07S
$$

WIZ029-030-035-036-043>047-200800-
CENTRAL WISCONSIN

CITY           SKY/WX    TMP DP  RH WIND       PRES   REMARKS
WAUSAU         LGT RAIN  54  37  52 S10       30.07S
MOSINEE        DRIZZLE   52  37  58 S9        30.10R
MARSHFIELD     LGT RAIN  56  39  53 S9        30.07S
STEVENS POINT  CLOUDY    53  36  53 S8        30.10S
WAUPACA        CLOUDY    55  37  50 S7        30.12F
WAUTOMA        CLOUDY    54  39  56 S6        30.12F
WISC RAPIDS    CLOUDY    59  34  39 S8        30.09F
CAMP DOUGLAS   CLOUDY    60  35  38 S12       30.08F
$$

WIZ011>013-019>022-031-037>040-048>050-200800-
NORTHEAST WISCONSIN

CITY           SKY/WX    TMP DP  RH WIND       PRES   REMARKS
ANTIGO         CLOUDY    45  38  76 SE10      30.10S
STURGEON BAY   CLOUDY    46  32  57 S17G24    30.16F
GREEN BAY      CLOUDY    51  38  60 S13       30.14S
MANITOWOC      MOCLDY    45  36  70 S15       30.19S
APPLETON       CLOUDY    52  34  50 S15G21    30.14S
CLINTONVILLE   CLOUDY    52  37  58 S6        30.12S
OSHKOSH        CLOUDY    52  37  56 S12       30.13F
$$

WIZ032>034-041-042-053>061-200800-
SOUTHWEST WISCONSIN

CITY           SKY/WX    TMP DP  RH WIND       PRES   REMARKS
LA CROSSE      CLOUDY    63  38  39 S14       30.05S
SPARTA         CLOUDY    64  32  31 S8G20     30.07S
VIROQUA        PTSUNNY   60  36  40 S13G20    30.08F
BOSCOBEL       CLOUDY    63  35  35 MISG      30.11F
PRAIRIE DU CHI CLOUDY    64  34  33 SE5       30.10S
PLATTEVILLE    CLOUDY    57  37  46 SE9       30.15S
$$

WIZ056-057-062-063-064-067-068-200800-
SOUTH CENTRAL WISCONSIN

CITY           SKY/WX    TMP DP  RH WIND       PRES   REMARKS
BARABOO/DELLS  CLOUDY    56  33  41 S13       30.12F
LONE ROCK      CLOUDY    61  35  37 S10       30.12F
WATERTOWN      PTCLDY    47  36  67 S5        30.17F
MADISON        PTCLDY    53  38  56 S12       30.16F
MIDDLETON      FAIR      56  34  43 S10       30.15F
MONROE         PTCLDY    53  37  53 S15       30.17S
JANESVILLE     CLEAR     52  36  54 S7        30.18F
$$

WIZ051-052-058>065-066-070>072-200800-
SOUTHEAST WISCONSIN

CITY           SKY/WX    TMP DP  RH WIND       PRES   REMARKS
MILWAUKEE      PTCLDY    50  33  52 S14       30.22F
WAUKESHA       PTCLDY    46  34  61 S9        30.21F
MILWAUKEE/TIMM CLEAR     46  32  57 S9        30.21F
RACINE         PTCLDY    48  33  56 S15       30.24S
BURLINGTON     PTCLDY    35  33  91 CALM      30.21S
KENOSHA        PTCLDY    50  34  54 S14       30.22S
FOND DU LAC    MOCLDY    53  36  52 S15       30.15F
SHEBOYGAN      PTCLDY    46  35  65 S14       30.19F
WEST BEND      MOCLDY    45  32  61 S3        30.19F
JUNEAU         MOCLDY    50  33  52 SE13      30.18F
$$

LSZ147-162-200800-
LAKE SUPERIOR

STATION/POSITION TIME  TEMP    WIND        PRES    WAVE
                       AIR SEA DIR/SP/G            HT/PER
                 (UTC) (F)     (DEG/KT/KT) (MB)    (FT/S)
DEVILS ISLAND    0700   34        CALM     1017.1F
PORT WING        0640   29     180/  3/  3 1016.9R
SAXON HARBOR     0600           CALM  /  2 1016.3
$$

LMZ867-665-643>646-200800-
LAKE MICHIGAN

STATION/POSITION TIME  TEMP    WIND        PRES    WAVE
                       AIR SEA DIR/SP/G            HT/PER
                 (UTC) (F)     (DEG/KT/KT) (MB)    (FT/S)
NORTHPORT PIER   0600   36     140/  4/  5 1022.7S
SISTER BAY       0609   41     170/  8/ 11   N/A
KEWAUNEE LAKESHO 0700   41     170/ 14/ 16 1022.4F
SHEBOYGAN LAKESH 0700   44     180/ 20/ 21 1023.1F
PORT WASHINGTON  0600   40     190/  2/  4 1023.7F
MILWAUKEE LAKESH 0700   45     150/ 11/ 12   N/A
KENOSHA   LAKESH 0700   44     170/ 15/ 18   N/A
$$

TC  - TEMPERATURE IN CELSIUS
VSB - VISIBILITY IN STATUTE MILES
WCI - WIND CHILL INDEX
HX  - HEAT INDEX




USA.gov is the U.S. government's official web portal to all federal, state and local government web resources and services.